Location: Iesi
(43.5167°N, 13.2333°E)
Time: 05:31:30
(UTC+00:00)

Okean 1-7 - Visible Passes

Search period start: 26 November 2020 00:00
Search period end: 06 December 2020 00:00
Orbit: 591 x 618 km, 82.5° (Epoch: 25 November)

Date Brightness Start Highest point End Pass type
(mag) Time Alt. Az. Time Alt. Az. Time Alt. Az.
01 Dec 6.1 05:06:12 10° NE 05:07:15 11° ENE 05:08:16 10° E visible
02 Dec 5.7 05:17:27 10° NNE 05:20:19 17° ENE 05:23:10 10° ESE visible
03 Dec 5.1 05:29:38 10° NNE 05:33:20 27° ENE 05:36:58 10° SE visible
04 Dec 4.2 05:42:08 10° N 05:46:15 44° ENE 05:50:20 10° SSE visible
